Regional Weather Roundup
Issued by NWS

Home | Current Version | Previous Version | Text Only | Print | Product List | Glossary Off
Versions: 1 2 3 4 5 6 7 8 9 10 11 12 13 14 15 16 17 18 19 20 21 22 23 24 25 26 27 28 29 30 31 32 33 34 35 36 37 38 39 40 41 42 43 44 45 46 47 48 49 50

000
ASUS43 KDMX 271107
RWRIA

WEATHER ROUNDUP FOR IOWA
NATIONAL WEATHER SERVICE DES MOINES IA
500 AM CST FRI FEB 27 2015

NOTE: "FAIR" INDICATES FEW OR NO CLOUDS BELOW 12,000 FEET WITH NO
SIGNIFICANT WEATHER AND/OR OBSTRUCTIONS TO VISIBILITY.

* - THESE STATIONS ARE NOT NWS STATIONS...THUS NOT UNDER NWS
QUALITY CONTROL.  THEY ALSO DO NOT REPORT WEATHER SUCH
AS PRECIPITATION OR FOG.

IAZ001>003-012>014-020>022-031>034-043>046-271200-
   NORTHWEST IOWA

CITY           SKY/WX    TMP DP  RH WIND       PRES   REMARKS
CARROLL *      PTCLDY    -9 -17  70 W10       30.56S WCI -28
CHEROKEE *     PTCLDY   -18 -24  76 CALM      30.56R
DENISON *      CLEAR    -15 -20  76 CALM      30.55S
LE MARS *      CLEAR    -11 -15  84 S5        30.58R WCI -23
ORANGE CITY *  CLEAR     -9 -15  77 CALM      30.52R
SHELDON *      CLEAR    -11 -17  77 CALM      30.52R
SIOUX CITY     CLEAR     -6 -10  83 NW5       30.58F WCI -17
SPENCER        CLEAR    -14 -20  74 W7        30.53R WCI -30
STORM LAKE *   CLEAR    -11 -18  70 W9        30.53S WCI -29
$$

IAZ055>058-069>071-079>083-090>094-271200-
   SOUTHWEST IOWA

CITY           SKY/WX    TMP DP  RH WIND       PRES   REMARKS
ATLANTIC *     CLEAR     -8 -13  77 CALM      30.58R
AUDUBON *      CLEAR    -11 -18  70 CALM      30.56R
CLARINDA *     CLEAR     -4  -8  84 NE3       30.62S
COUNCIL BLFS * CLEAR     -2  -6  84 CALM      30.56S
CRESTON *      CLEAR     -6 -11  77 NW5       30.55S WCI -17
HARLAN  *      CLEAR    -11 -15  84 CALM      30.61S
LAMONI         CLEAR     -6 -10  83 NW5       30.55F WCI -17
RED OAK *      CLEAR     -6  -9  84 CALM      30.60S
SHENANDOAH *   CLEAR     -6 -11  77 CALM      30.62R
$$

IAZ047>049-059>061-072>074-084-271200-
   CENTRAL IOWA

CITY           SKY/WX    TMP DP  RH WIND       PRES   REMARKS
AMES           CLEAR    -13 -18  78 W5        30.57R WCI -25
ANKENY *       CLEAR     -8 -13  77 NW7       30.59S WCI -22
CHARITON *     PTCLDY    -8 -15  71 W6        30.57R WCI -21
DES MOINES     CLEAR     -6 -12  75 NW3       30.58S
GRINNELL*      PTCLDY   -13 -18  77 W6        30.56R WCI -27
KNOXVILLE *    CLEAR     -9 -17  70 W8        30.57R WCI -26
MARSHALLTOWN   PTCLDY   -16 -19  87 W9        30.54S WCI -35
PELLA *        CLEAR     -8  -9  92 NW6       30.59R WCI -21
PERRY *          N/A    -11 -15  84 W8        30.58R WCI -28
$$

IAZ004>006-015-016-023>025-035-036-271200-
   NORTH CENTRAL IOWA

CITY           SKY/WX    TMP DP  RH WIND       PRES   REMARKS
ALGONA *       CLEAR     -9 -15  77 NW9       30.52S WCI -27
CLARION *      CLEAR    -24 -31  69 W3        30.54R
ESTHERVILLE    CLEAR    -12 -17  78 W9        30.51R WCI -30
FORT DODGE *   PTCLDY   -13 -20  70 CALM      30.55S
MASON CITY     PTCLDY   -16 -20  82 W6        30.52S WCI -31
FOREST CITY *  SNOW     -17 -24  70 CALM      30.51S VSB 1/2
IOWA FALLS *     N/A    -17 -24  70 W6        30.54R WCI -31
$$

IAZ007>011-017>019-026>030-037>042-050>054-066-271200-
   NORTHEAST IOWA

CITY           SKY/WX    TMP DP  RH WIND       PRES   REMARKS
CEDAR RAPIDS   PTCLDY   -18 -21  87 W7        30.54R WCI -35
CHARLES CITY * CLEAR    -17 -24  70 NW7       30.52S WCI -33
CLINTON *      CLEAR    -17 -22  76 W3        30.55R
DECORAH *      CLEAR    -11 -17  77 CALM      30.49S
DUBUQUE        PTCLDY   -17 -20  86 CALM      30.49R
MONTICELLO *   CLEAR    -17 -24  70 CALM      30.54R
OELWEIN *      CLEAR    -17 -24  70 NW6       30.52S WCI -31
WATERLOO       MOCLDY   -21 -23  90 NW3       30.55R
$$

IAZ064-065-067-068-078-271200-
   EAST CENTRAL IOWA

CITY           SKY/WX    TMP DP  RH WIND       PRES   REMARKS
DAVENPORT      CLEAR    -18 -23  77 W8        30.55R WCI -36
IOWA CITY      CLEAR     -9 -13  83 NW5       30.59R WCI -20
MT. PLEASANT * PTCLDY   -11 -17  77 W5        30.58R WCI -23
MUSCATINE *    CLEAR     -6 -11  77 W3        30.60R
QUAD CITIES    PTCLDY    -9 -14  78 W6        30.56R WCI -22
$$

IAZ062-063-075>077-085>089-095>099-271200-
   SOUTHEAST IOWA

CITY           SKY/WX    TMP DP  RH WIND       PRES   REMARKS
BURLINGTON     PTCLDY    -9 -13  83 NW6       30.57R WCI -22
FAIRFIELD *    CLEAR    -11 -18  70 W7        30.58R WCI -26
FORT MADISON * CLEAR     -9 -15  77 W6        30.58R WCI -23
KEOKUK *       CLEAR     -8 -11  84 NW6       30.58S WCI -21
OSKALOOSA *      N/A    -11 -15  84 NW9       30.58S WCI -29
CENTERVILLE *  CLEAR     -8 -11  84 NW3       30.58S
OTTUMWA        CLEAR     -9 -13  83 W7        30.57R WCI -24
WASHINGTON *   CLEAR    -11 -15  84 W7        30.58R WCI -26
$$

ABBREVIATIONS USED IN REMARKS
   TC - TEMPERATURES IN CELSIUS
  WCI - WIND CHILL INDEX
   HX - HEAT INDEX
  VSB - VISIBILITY
$$




USA.gov is the U.S. government's official web portal to all federal, state and local government web resources and services.